Terminal Aerodrome Forecast
Issued by NWS Blacksburg, VA

Current Version | Previous Version | Graphics & Text | Print | Product List | Glossary On
Versions: 1 2 3 4 5 6 7 8 9 10 11 12 13 14 15 16 17 18 19 20 21 22 23 24 25 26
000
FTUS41 KRNK 291731
TAFBLF
TAF
KBLF 291731Z 2918/3018 24004KT P6SM VCSH BKN040 BKN080
     FM300200 VRB03KT P6SM SCT040 BKN080
     FM301400 24004KT P6SM VCSH BKN040 BKN080=

USA.gov is the U.S. government's official web portal to all federal, state and local government web resources and services.